Regional Weather Roundup
Issued by NWS

Home | Current Version | Previous Version | Graphics & Text | Print | Product List | Glossary On
Versions: 1 2 3 4 5 6 7 8 9 10 11 12 13 14 15 16 17 18 19 20 21 22 23 24 25 26 27 28 29 30 31 32 33 34 35 36 37 38 39 40 41 42 43 44 45 46 47 48 49 50
111
ASUS43 KIND 202259
RWRIN

WEATHER ROUNDUP FOR INDIANA
NATIONAL WEATHER SERVICE INDIANAPOLIS IN
600 PM EST SAT JAN 20 2018

NOTE: "FAIR" INDICATES FEW OR NO CLOUDS BELOW 12,000 FEET WITH NO
SIGNIFICANT WEATHER AND/OR OBSTRUCTIONS TO VISIBILITY.

* - STATION DOES NOT REPORT WEATHER SUCH AS PRECIPITATION OR FOG.

+ - STATION NOT QUALITY CONTROLLED BY THE NATIONAL WEATHER SERVICE.
    USE DATA WITH CAUTION...ESPECIALLY DEWPOINT AND RELATIVE
    HUMIDITY OBSERVATIONS.

INZ001>003-010>013-019-020-210000-
NORTHWEST INDIANA

CITY           SKY/WX    TMP DP  RH WIND       PRES   REMARKS
GARY /AIRPORT/ CLOUDY    45  37  76 S5        29.98R
KNOX *+        CLOUDY    37  34  87 SW8       30.00R WCI  31
MONTICELLO +   CLOUDY    38  35  87 S9        30.00S WCI  32

$$

LMZ046-743>745-210000-
SOUTHERN LAKE MICHIGAN

STATION/POSITION TIME  TEMP    WIND        PRES    WAVE
                       AIR SEA DIR/SP/G            HT
                 (UTC) (F)     (DEG/KT/KT) (MB)    (FT)
BURNS HARBOR     2240   42     190/ 10/ 12 1015.9R
MICHIGAN CITY    2230   42     200/ 15/ 16   N/A

$$

INZ004-005-014>016-021>024-210000-
NORTH CENTRAL INDIANA

CITY           SKY/WX    TMP DP  RH WIND       PRES   REMARKS
ELKHART        CLEAR     39  32  75 SW5       30.00R WCI  36
GOSHEN         CLOUDY    38  33  82 SW6       30.00R WCI  33
PERU/GRISSOM   CLOUDY    38  37  93 SW10      30.02R WCI  31
SOUTH BEND     MOCLDY    37  32  82 S8        30.00R WCI  31

$$

INZ006>009-017-018-025>027-210000-
NORTHEAST INDIANA

CITY           SKY/WX    TMP DP  RH WIND       PRES   REMARKS
FORT WAYNE     CLOUDY    39  34  82 SW14      30.02S WCI  31
KENDALLVILLE + FAIR      37  32  81 SW7       29.99S WCI  32

$$

INZ028-029-035-036-043>045-051>053-210000-
WEST CENTRAL INDIANA

CITY           SKY/WX    TMP DP  RH WIND       PRES   REMARKS
GREENCASTLE +  CLOUDY    41  30  65 S5        30.04S
LAFAYETTE      CLOUDY    39  35  86 S6        30.02S WCI  35
TERRE HAUTE    CLOUDY    41  31  67 S7        30.05R

$$

INZ030>032-037>040-046>048-054>057-064-065-210000-
CENTRAL INDIANA

CITY           SKY/WX    TMP DP  RH WIND       PRES   REMARKS
COLUMBUS       MOCLDY    41  30  65 MISG      30.07S
INDIANAPOLIS   CLOUDY    41  33  73 S7        30.05R
-EAGLE CREEK   CLOUDY    42  31  64 SW5       30.04R
SHELBYVILLE    CLOUDY    42  30  62 S9        30.05S

$$

INZ033-034-041-042-049-050-058-059-210000-
EAST CENTRAL INDIANA

CITY           SKY/WX    TMP DP  RH WIND       PRES   REMARKS
MUNCIE         CLOUDY    42  31  64 S6        30.04R
RICHMOND +     CLOUDY    36  32  87 S7        30.06S WCI  30

$$

INZ060-061-067>069-081>083-085>088-210000-
SOUTHWEST INDIANA

CITY           SKY/WX    TMP DP  RH WIND       PRES   REMARKS
EVANSVILLE     CLOUDY    43  39  86 S7        30.11S
HUNTINGBURG +  CLOUDY    43  38  82 S10       30.11S

$$

INZ062-063-066-070>080-084-089>092-210000-
SOUTH CENTRAL AND SOUTHEAST INDIANA

CITY           SKY/WX    TMP DP  RH WIND       PRES   REMARKS
BLOOMINGTON    CLOUDY    43  38  82 SW9       30.06R
FRENCH LICK *+ CLOUDY    43  43 100 S6        30.09S
SEYMOUR +      CLOUDY    45  39  81 SW9       30.09R

$$





USA.gov is the U.S. government's official web portal to all federal, state and local government web resources and services.